| time (UTC) | temp F | wind direction | speed knots | gust knots | rain 1hr in | rain 24hr in | rain mn in | humidity % | barometer mb |
| 20260504213756 | 72 | 217 | 1.7 | 7.0 | 0.00 | 0.00 | 0.00 | 35 | 1009.3 |
| 20260504213751 | 72 | 150 | 1.7 | 6.1 | 0.00 | 0.00 | 0.00 | 34 | 1009.3 |
| 20260504212749 | 72 | 187 | 2.6 | 8.7 | 0.00 | 0.00 | 0.00 | 33 | 1009.4 |
| 20260504212250 | 73 | 192 | 2.6 | 8.7 | 0.00 | 0.00 | 0.00 | 33 | 1009.3 |
| 20260504211748 | 73 | 152 | 2.6 | 5.2 | 0.00 | 0.00 | 0.00 | 34 | 1009.3 |
| 20260504211247 | 73 | 162 | 2.6 | 7.8 | 0.00 | 0.00 | 0.00 | 34 | 1009.3 |
| 20260504210747 | 73 | 186 | 2.6 | 7.8 | 0.00 | 0.00 | 0.00 | 33 | 1009.3 |
| 20260504210247 | 73 | 192 | 2.6 | 8.7 | 0.00 | 0.00 | 0.00 | 33 | 1009.5 |
| 20260504205748 | 73 | 198 | 3.5 | 8.7 | 0.00 | 0.00 | 0.00 | 35 | 1009.5 |
| 20260504205248 | 73 | 139 | 2.6 | 7.0 | 0.00 | 0.00 | 0.00 | 34 | 1009.5 |
| 20260504204743 | 73 | 182 | 2.6 | 7.0 | 0.00 | 0.00 | 0.00 | 32 | 1009.4 |
| 20260504204235 | 74 | 180 | 2.6 | 7.8 | 0.00 | 0.00 | 0.00 | 33 | 1009.4 |
| 20260504203730 | 74 | 139 | 2.6 | 12.2 | 0.00 | 0.00 | 0.00 | 34 | 1009.5 |
| 20260504203224 | 74 | 227 | 2.6 | 12.2 | 0.00 | 0.00 | 0.00 | 32 | 1009.4 |
| 20260504202719 | 74 | 193 | 3.5 | 13.9 | 0.00 | 0.00 | 0.00 | 34 | 1009.5 |
| 20260504202445 | 74 | 196 | 3.5 | 19.1 | 0.00 | 0.00 | 0.00 | 31 | 1009.6 |
| 20260504201705 | 74 | 215 | 4.3 | 19.1 | 0.00 | 0.00 | 0.00 | 31 | 1009.4 |
| 20260504201201 | 74 | 158 | 2.6 | 13.9 | 0.00 | 0.00 | 0.00 | 31 | 1009.5 |
| 20260504200924 | 74 | 200 | 1.7 | 7.8 | 0.00 | 0.00 | 0.00 | 33 | 1009.5 |
| 20260504200147 | 74 | 179 | 2.6 | 11.3 | 0.00 | 0.00 | 0.00 | 34 | 1009.5 |
| 20260504195640 | 74 | 150 | 3.5 | 11.3 | 0.00 | 0.00 | 0.00 | 32 | 1009.6 |
| 20260504195142 | 74 | 203 | 2.6 | 11.3 | 0.00 | 0.00 | 0.00 | 32 | 1009.5 |
| 20260504194641 | 74 | 188 | 1.7 | 7.8 | 0.00 | 0.00 | 0.00 | 31 | 1009.5 |
| 20260504194138 | 74 | 198 | 2.6 | 10.4 | 0.00 | 0.00 | 0.00 | 32 | 1009.5 |
| 20260504193640 | 74 | 159 | 2.6 | 10.4 | 0.00 | 0.00 | 0.00 | 32 | 1009.6 |
| 20260504193137 | 73 | 124 | 2.6 | 9.6 | 0.00 | 0.00 | 0.00 | 36 | 1009.7 |
| 20260504192908 | 73 | 181 | 3.5 | 9.6 | 0.00 | 0.00 | 0.00 | 31 | 1009.6 |
| 20260504192137 | 73 | 205 | 2.6 | 8.7 | 0.00 | 0.00 | 0.00 | 32 | 1009.7 |
| 20260504191637 | 73 | 246 | 3.5 | 10.4 | 0.00 | 0.00 | 0.00 | 35 | 1009.7 |
| 20260504191137 | 73 | 180 | 4.3 | 13.0 | 0.00 | 0.00 | 0.00 | 32 | 1009.8 |
| 20260504190637 | 73 | 256 | 4.3 | 13.0 | 0.00 | 0.00 | 0.00 | 31 | 1009.7 |
| 20260504190138 | 73 | 226 | 2.6 | 13.0 | 0.00 | 0.00 | 0.00 | 33 | 1009.9 |
| 20260504185633 | 73 | 182 | 2.6 | 6.1 | 0.00 | 0.00 | 0.00 | 32 | 1009.9 |
| 20260504185133 | 73 | 164 | 2.6 | 9.6 | 0.00 | 0.00 | 0.00 | 32 | 1010.0 |
| 20260504184905 | 73 | 194 | 2.6 | 9.6 | 0.00 | 0.00 | 0.00 | 33 | 1010.1 |
| 20260504184750 | 73 | 146 | 3.5 | 10.4 | 0.00 | 0.00 | 0.00 | 30 | 1010.3 |
| 20260504183634 | 73 | 165 | 3.5 | 10.4 | 0.00 | 0.00 | 0.00 | 34 | 1010.5 |
| 20260504183133 | 73 | 216 | 3.5 | 11.3 | 0.00 | 0.00 | 0.00 | 34 | 1010.6 |
| 20260504182632 | 73 | 211 | 3.5 | 11.3 | 0.00 | 0.00 | 0.00 | 33 | 1010.5 |
| 20260504182404 | 73 | 258 | 3.5 | 8.7 | 0.00 | 0.00 | 0.00 | 35 | 1010.7 |
| 20260504181634 | 73 | 228 | 3.5 | 9.6 | 0.00 | 0.00 | 0.00 | 34 | 1010.9 |
| 20260504181406 | 73 | 184 | 3.5 | 9.6 | 0.00 | 0.00 | 0.00 | 32 | 1010.9 |
| 20260504180633 | 73 | 213 | 3.5 | 9.6 | 0.00 | 0.00 | 0.00 | 33 | 1010.9 |
| 20260504180133 | 73 | 193 | 3.5 | 10.4 | 0.00 | 0.00 | 0.00 | 32 | 1010.9 |
| 20260504175632 | 73 | 157 | 3.5 | 10.4 | 0.00 | 0.00 | 0.00 | 34 | 1011.1 |
| 20260504175134 | 73 | 223 | 3.5 | 11.3 | 0.00 | 0.00 | 0.00 | 35 | 1011.3 |
| 20260504174632 | 73 | 225 | 3.5 | 11.3 | 0.00 | 0.00 | 0.00 | 33 | 1011.4 |
| 20260504174132 | 72 | 179 | 3.5 | 11.3 | 0.00 | 0.00 | 0.00 | 34 | 1011.3 |
| 20260504173632 | 72 | 231 | 3.5 | 11.3 | 0.00 | 0.00 | 0.00 | 32 | 1011.4 |
| 20260504173133 | 72 | 157 | 2.6 | 14.8 | 0.00 | 0.00 | 0.00 | 38 | 1011.3 |
| 20260504172633 | 72 | 162 | 2.6 | 14.8 | 0.00 | 0.00 | 0.00 | 32 | 1011.5 |
| 20260504172628 | 72 | 183 | 2.6 | 9.6 | 0.00 | 0.00 | 0.00 | 37 | 1011.5 |
| 20260504171627 | 72 | 249 | 3.5 | 11.3 | 0.00 | 0.00 | 0.00 | 34 | 1011.6 |
| 20260504171127 | 72 | 184 | 2.6 | 11.3 | 0.00 | 0.00 | 0.00 | 35 | 1011.7 |
| 20260504170628 | 72 | 138 | 2.6 | 6.1 | 0.00 | 0.00 | 0.00 | 37 | 1011.8 |
| 20260504170124 | 71 | 171 | 3.5 | 13.0 | 0.00 | 0.00 | 0.00 | 33 | 1011.8 |
| 20260504160120 | 70 | 178 | 2.6 | 8.7 | 0.00 | 0.00 | 0.00 | 38 | 1012.6 |
| 20260504151021 | 65 | 163 | 3.5 | 13.9 | 0.00 | 0.00 | 0.00 | 45 | 1013.1 |
| 20260504150516 | 64 | 202 | 2.6 | 13.9 | 0.00 | 0.00 | 0.00 | 45 | 1012.9 |
| 20260504140925 | 59 | 235 | 2.6 | 9.6 | 0.00 | 0.00 | 0.00 | 56 | 1013.2 |
| 20260504140423 | 58 | 177 | 3.5 | 11.3 | 0.00 | 0.00 | 0.00 | 56 | 1013.3 |
| 20260504130653 | 54 | 224 | 2.6 | 12.2 | 0.00 | 0.00 | 0.00 | 66 | 1013.7 |
| 20260504120109 | 45 | 206 | 0.0 | 4.3 | 0.00 | 0.00 | 0.00 | 89 | 1014.0 |
| 20260504110331 | 39 | 230 | 0.0 | 0.9 | 0.00 | 0.00 | 0.00 | 84 | 1014.3 |
| 20260504100332 | 39 | 230 | 0.0 | 0.0 | 0.00 | 0.00 | 0.00 | 78 | 1014.1 |
| 20260504081647 | 40 | 230 | 0.0 | 0.0 | 0.00 | 0.00 | 0.00 | 74 | 1014.1 |
| 20260504081412 | 40 | 230 | 0.0 | 0.0 | 0.00 | 0.00 | 0.00 | 74 | 1014.0 |
| 20260504080906 | 40 | 230 | 0.0 | 0.0 | 0.00 | 0.00 | 0.00 | 73 | 1014.0 |
| 20260504080129 | 41 | 230 | 0.0 | 0.0 | 0.00 | 0.00 | 0.00 | 73 | 1014.1 |
| 20260504050300 | 44 | 230 | 0.0 | 0.0 | 0.00 | 0.00 | 0.00 | 66 | 1013.7 |
| 20260504050025 | 44 | 230 | 0.0 | 0.0 | 0.00 | 0.00 | 0.00 | 66 | 1013.7 |
| 20260504045248 | 44 | 230 | 0.0 | 0.0 | 0.00 | 0.00 | 0.00 | 66 | 1013.7 |
| 20260504044742 | 45 | 230 | 0.0 | 0.0 | 0.00 | 0.00 | 0.00 | 65 | 1013.7 |
| 20260504044235 | 45 | 230 | 0.0 | 0.0 | 0.00 | 0.00 | 0.00 | 64 | 1013.6 |
| 20260504043730 | 45 | 230 | 0.0 | 0.9 | 0.00 | 0.00 | 0.00 | 63 | 1013.6 |
| 20260504043223 | 45 | 230 | 0.0 | 0.9 | 0.00 | 0.00 | 0.00 | 63 | 1013.4 |
| 20260504042724 | 45 | 230 | 0.0 | 0.0 | 0.00 | 0.00 | 0.00 | 62 | 1013.5 |
| 20260504042221 | 46 | 230 | 0.0 | 0.0 | 0.00 | 0.00 | 0.00 | 62 | 1013.4 |
| 20260504041725 | 46 | 230 | 0.0 | 1.7 | 0.00 | 0.00 | 0.00 | 61 | 1013.3 |
| 20260504041721 | 46 | 230 | 0.0 | 1.7 | 0.00 | 0.00 | 0.00 | 62 | 1013.4 |
| 20260504040716 | 46 | 202 | 0.0 | 0.9 | 0.00 | 0.00 | 0.00 | 60 | 1013.2 |
| 20260504040214 | 46 | 202 | 0.0 | 0.9 | 0.00 | 0.00 | 0.00 | 60 | 1013.2 |
| 20260504035713 | 47 | 202 | 0.0 | 0.0 | 0.00 | 0.00 | 0.00 | 59 | 1013.2 |
| 20260504035210 | 47 | 202 | 0.0 | 0.0 | 0.00 | 0.00 | 0.00 | 59 | 1013.2 |
| 20260504034939 | 47 | 202 | 0.0 | 0.0 | 0.00 | 0.00 | 0.00 | 57 | 1013.3 |
| 20260504034209 | 47 | 202 | 0.0 | 1.7 | 0.00 | 0.00 | 0.00 | 61 | 1013.2 |
| 20260504033939 | 47 | 202 | 0.0 | 1.7 | 0.00 | 0.00 | 0.00 | 57 | 1013.2 |
| 20260504033208 | 48 | 208 | 0.0 | 0.9 | 0.00 | 0.00 | 0.00 | 56 | 1013.1 |
| 20260504032708 | 48 | 213 | 0.0 | 1.7 | 0.00 | 0.00 | 0.00 | 56 | 1013.1 |
| 20260504032209 | 48 | 216 | 0.9 | 1.7 | 0.00 | 0.00 | 0.00 | 52 | 1013.2 |
| 20260504031934 | 48 | 209 | 0.9 | 3.5 | 0.00 | 0.00 | 0.00 | 51 | 1013.1 |
| 20260504031203 | 48 | 211 | 0.9 | 3.5 | 0.00 | 0.00 | 0.00 | 51 | 1013.0 |
| 20260504030704 | 48 | 223 | 0.9 | 2.6 | 0.00 | 0.00 | 0.00 | 51 | 1013.0 |
| 20260504030204 | 49 | 197 | 0.0 | 1.7 | 0.00 | 0.00 | 0.00 | 52 | 1013.0 |
| 20260504025705 | 49 | 229 | 0.0 | 1.7 | 0.00 | 0.00 | 0.00 | 51 | 1013.0 |
| 20260504025204 | 49 | 233 | 0.9 | 2.6 | 0.00 | 0.00 | 0.00 | 50 | 1013.0 |
| 20260504024705 | 49 | 219 | 0.0 | 2.6 | 0.00 | 0.00 | 0.00 | 49 | 1013.0 |
| 20260504024205 | 49 | 258 | 0.0 | 1.7 | 0.00 | 0.00 | 0.00 | 48 | 1013.1 |
| 20260504023705 | 49 | 213 | 0.9 | 2.6 | 0.00 | 0.00 | 0.00 | 48 | 1013.1 |
| 20260504023203 | 49 | 205 | 0.0 | 2.6 | 0.00 | 0.00 | 0.00 | 47 | 1013.0 |
| 20260504022935 | 49 | 213 | 0.0 | 0.9 | 0.00 | 0.00 | 0.00 | 47 | 1013.0 |
| 20260504022204 | 50 | 213 | 0.0 | 0.9 | 0.00 | 0.00 | 0.00 | 47 | 1013.1 |
| 20260504021705 | 50 | 188 | 0.0 | 0.9 | 0.00 | 0.00 | 0.00 | 47 | 1012.9 |
| 20260504021201 | 50 | 226 | 0.0 | 2.6 | 0.00 | 0.00 | 0.00 | 47 | 1013.0 |
| 20260504020931 | 50 | 226 | 0.0 | 4.3 | 0.00 | 0.00 | 0.00 | 46 | 1012.9 |
| 20260504020159 | 50 | 204 | 0.0 | 4.3 | 0.00 | 0.00 | 0.00 | 46 | 1013.0 |
| 20260504015659 | 50 | 208 | 0.0 | 1.7 | 0.00 | 0.00 | 0.00 | 46 | 1013.0 |
| 20260504015159 | 50 | 209 | 0.9 | 4.3 | 0.00 | 0.00 | 0.00 | 46 | 1013.0 |
| 20260504014656 | 51 | 189 | 0.9 | 4.3 | 0.00 | 0.00 | 0.00 | 47 | 1013.0 |
| 20260504014154 | 51 | 201 | 0.9 | 4.3 | 0.00 | 0.00 | 0.00 | 45 | 1013.0 |
| 20260504013654 | 51 | 195 | 0.9 | 4.3 | 0.00 | 0.00 | 0.00 | 45 | 1012.9 |
| 20260504013154 | 51 | 193 | 0.9 | 3.5 | 0.00 | 0.00 | 0.00 | 45 | 1012.9 |
| 20260504012647 | 51 | 191 | 0.9 | 4.3 | 0.00 | 0.00 | 0.00 | 45 | 1012.8 |
| 20260504012142 | 51 | 193 | 0.9 | 4.3 | 0.00 | 0.00 | 0.00 | 45 | 1012.8 |
| 20260504011636 | 51 | 221 | 0.9 | 4.3 | 0.00 | 0.00 | 0.00 | 45 | 1012.7 |
| 20260504011129 | 51 | 194 | 0.9 | 3.5 | 0.00 | 0.00 | 0.00 | 44 | 1012.6 |
| 20260504010624 | 52 | 194 | 0.9 | 5.2 | 0.00 | 0.00 | 0.00 | 43 | 1012.5 |
| 20260504010118 | 52 | 208 | 0.9 | 5.2 | 0.00 | 0.00 | 0.00 | 43 | 1012.4 |
| 20260504005612 | 52 | 225 | 0.0 | 3.5 | 0.00 | 0.00 | 0.00 | 43 | 1012.4 |
| 20260504005105 | 52 | 198 | 0.0 | 2.6 | 0.00 | 0.00 | 0.00 | 42 | 1012.3 |
| 20260504004601 | 53 | 200 | 0.0 | 2.6 | 0.00 | 0.00 | 0.00 | 42 | 1012.3 |
| 20260504004054 | 53 | 202 | 0.9 | 2.6 | 0.00 | 0.00 | 0.00 | 42 | 1012.2 |
| 20260504003547 | 53 | 201 | 0.9 | 2.6 | 0.00 | 0.00 | 0.00 | 41 | 1012.2 |
| 20260504003040 | 53 | 199 | 0.0 | 2.6 | 0.00 | 0.00 | 0.00 | 40 | 1012.2 |
| 20260504002806 | 54 | 192 | 0.9 | 3.5 | 0.00 | 0.00 | 0.00 | 40 | 1012.1 |
| 20260504002029 | 54 | 212 | 0.9 | 3.5 | 0.00 | 0.00 | 0.00 | 39 | 1012.0 |
| 20260504001521 | 54 | 210 | 0.9 | 3.5 | 0.00 | 0.00 | 0.00 | 39 | 1012.0 |
| 20260504001015 | 54 | 198 | 0.9 | 6.1 | 0.00 | 0.00 | 0.00 | 39 | 1011.9 |
| 20260504000510 | 55 | 206 | 1.7 | 5.2 | 0.00 | 0.00 | 0.00 | 39 | 1011.8 |
| 20260504000004 | 55 | 179 | 2.6 | 7.0 | 0.00 | 0.00 | 0.00 | 37 | 1011.7 |
| 20260503235729 | 55 | 173 | 1.7 | 7.0 | 0.00 | 0.00 | 0.00 | 37 | 1011.7 |
| 20260503234953 | 56 | 172 | 1.7 | 5.2 | 0.00 | 0.00 | 0.00 | 36 | 1011.8 |
| 20260503234717 | 56 | 208 | 1.7 | 4.3 | 0.00 | 0.00 | 0.00 | 37 | 1011.6 |
| 20260503233940 | 56 | 217 | 1.7 | 5.2 | 0.00 | 0.00 | 0.00 | 36 | 1011.6 |
| 20260503233434 | 56 | 181 | 1.7 | 5.2 | 0.00 | 0.00 | 0.00 | 35 | 1011.5 |
| 20260503232929 | 57 | 218 | 2.6 | 6.1 | 0.00 | 0.00 | 0.00 | 35 | 1011.4 |
| 20260503232422 | 57 | 221 | 2.6 | 7.0 | 0.00 | 0.00 | 0.00 | 35 | 1011.5 |
| 20260503231917 | 57 | 242 | 3.5 | 7.0 | 0.00 | 0.00 | 0.00 | 33 | 1011.4 |
| 20260503231640 | 57 | 184 | 3.5 | 13.0 | 0.00 | 0.00 | 0.00 | 35 | 1011.5 |
| 20260503230904 | 58 | 222 | 3.5 | 13.0 | 0.00 | 0.00 | 0.00 | 35 | 1011.3 |
| 20260503230358 | 58 | 179 | 3.5 | 12.2 | 0.00 | 0.00 | 0.00 | 33 | 1011.3 |
| 20260503225852 | 58 | 231 | 3.5 | 12.2 | 0.00 | 0.00 | 0.00 | 32 | 1011.2 |
| 20260503225345 | 59 | 208 | 2.6 | 9.6 | 0.00 | 0.00 | 0.00 | 32 | 1011.2 |
| 20260503224839 | 59 | 300 | 2.6 | 7.8 | 0.00 | 0.00 | 0.00 | 32 | 1011.2 |
| 20260503224606 | 59 | 254 | 2.6 | 8.7 | 0.00 | 0.00 | 0.00 | 32 | 1011.2 |
| 20260503224059 | 59 | 260 | 2.6 | 8.7 | 0.00 | 0.00 | 0.00 | 32 | 1011.1 |
| 20260503223553 | 59 | 339 | 3.5 | 10.4 | 0.00 | 0.00 | 0.00 | 32 | 1011.0 |
| 20260503222816 | 59 | 233 | 2.6 | 10.4 | 0.00 | 0.00 | 0.00 | 31 | 1011.0 |
| 20260503222310 | 59 | 235 | 2.6 | 8.7 | 0.00 | 0.00 | 0.00 | 31 | 1011.0 |
| 20260503221803 | 59 | 217 | 2.6 | 8.7 | 0.00 | 0.00 | 0.00 | 29 | 1011.0 |
| 20260503221257 | 59 | 173 | 3.5 | 10.4 | 0.00 | 0.00 | 0.00 | 33 | 1011.0 |
| 20260503220752 | 59 | 256 | 4.3 | 12.2 | 0.00 | 0.00 | 0.00 | 30 | 1011.1 |
| 20260503220246 | 59 | 173 | 3.5 | 10.4 | 0.00 | 0.00 | 0.00 | 30 | 1011.2 |
| 20260503220010 | 59 | 253 | 2.6 | 10.4 | 0.00 | 0.00 | 0.00 | 32 | 1011.1 |
| 20260503215234 | 59 | 333 | 2.6 | 10.4 | 0.00 | 0.00 | 0.00 | 30 | 1011.0 |
| 20260503214728 | 59 | 285 | 3.5 | 12.2 | 0.00 | 0.00 | 0.00 | 32 | 1011.1 |
| 20260503214222 | 60 | 258 | 3.5 | 12.2 | 0.00 | 0.00 | 0.00 | 30 | 1011.2 |